Location: Friedrichshafen
(47.6598°N, 9.4819°E)
Time: 09:08:25
(UTC+01:00)

ISS - Pass Details

Date: 12 February 2018
Orbit: 402 x 407 km, 51.6° (Epoch: 24 February)

Event Time Altitude Azimuth Distance (km) Brightness Sun altitude
Rises 18:31:43 0° 290° (WNW) 2,321 1.2 -9.2°
Reaches altitude 10° 18:33:56 10° 279° (W) 1,459 0.3 -9.6°
Maximum altitude 18:36:50 29° 217° (SW) 763 -1.9 -10.0°
Drops below altitude 10° 18:39:43 10° 154° (SSE) 1,452 -1.2 -10.5°
Sets 18:41:56 0° 143° (SE) 2,308 -0.3 -10.9°
Enters shadow 18:41:59 - 143° (SE) 2,331 -0.3 -10.9°
